When you browse on this site, cookies collect data to enhance your experience and personalize the content and advertising you see.
Visit our Privacy Policy to learn more. By continuing to use the site, you agree to this use of cookies and data.
  • în România
  • Lista ţărilor
  • Pe 7 zile
  • Temperatura apei
  • Meteo pe hartă
  • Widget-uri
  • user-avatar
    Intrare

    Meteo pe oră la Knighton

    Astăzi, 12 Noiembrie, Marţi

    Timp Temperatura Precipitaţii Vânt Presiune Umiditate
    00:00 -1°C° 0 mm 6 m/s 720 mmHg 85%
    01:00 -1°C° 0 mm 6 m/s 720 mmHg 84%
    02:00 -1°C° 0 mm 6 m/s 720 mmHg 84%
    03:00 -1°C° 0 mm 6 m/s 720 mmHg 83%
    04:00 -1°C° 0 mm 6 m/s 720 mmHg 83%
    05:00 -1°C° 0 mm 6 m/s 720 mmHg 82%
    06:00 -1°C° 0 mm 7 m/s 720 mmHg 82%
    07:00 -1°C° 0 mm 7 m/s 719 mmHg 80%
    08:00 0°C° 0 mm 8 m/s 719 mmHg 79%
    09:00 0°C° 0 mm 8 m/s 719 mmHg 78%
    10:00 +1°C° 0.4 mm 8 m/s 719 mmHg 81%
    11:00 +1°C° 0.4 mm 8 m/s 719 mmHg 85%
    12:00 +2°C° 0.4 mm 9 m/s 719 mmHg 89%
    13:00 +3°C° 0.3 mm 7 m/s 719 mmHg 88%
    14:00 +3°C° 0.3 mm 6 m/s 719 mmHg 88%
    15:00 +5°C° 0.3 mm 5 m/s 719 mmHg 88%
    16:00 +3°C° 0.1 mm 5 m/s 720 mmHg 89%
    17:00 +3°C° 0.1 mm 5 m/s 720 mmHg 90%
    18:00 +2°C° 0.1 mm 5 m/s 721 mmHg 91%
    19:00 +3°C° 0 mm 4 m/s 721 mmHg 91%
    20:00 +3°C° 0 mm 4 m/s 721 mmHg 91%
    21:00 +1°C° 0 mm 4 m/s 722 mmHg 91%
    22:00 +1°C° 0 mm 4 m/s 722 mmHg 92%
    23:00 +1°C° 0 mm 4 m/s 722 mmHg 92%

    Mâine, 13 Noiembrie, Miercuri

    Timp Temperatura Precipitaţii Vânt Presiune Umiditate
    00:00 0°C° 0 mm 4 m/s 722 mmHg 92%
    01:00 0°C° 0 mm 4 m/s 722 mmHg 92%
    02:00 0°C° 0 mm 4 m/s 721 mmHg 91%
    03:00 0°C° 0 mm 4 m/s 721 mmHg 91%
    04:00 0°C° 0 mm 4 m/s 721 mmHg 91%
    05:00 +1°C° 0 mm 3 m/s 721 mmHg 92%
    06:00 +1°C° 0 mm 3 m/s 721 mmHg 92%
    07:00 +1°C° 0 mm 3 m/s 720 mmHg 91%
    08:00 +1°C° 0 mm 3 m/s 720 mmHg 91%
    09:00 +2°C° 0 mm 3 m/s 720 mmHg 90%
    10:00 +2°C° 0 mm 3 m/s 719 mmHg 85%
    11:00 +3°C° 0 mm 3 m/s 718 mmHg 81%
    12:00 +4°C° 0 mm 3 m/s 717 mmHg 76%
    13:00 +3°C° 0.4 mm 3 m/s 716 mmHg 81%
    14:00 +3°C° 0.4 mm 4 m/s 715 mmHg 86%
    15:00 +3°C° 0.4 mm 4 m/s 714 mmHg 91%
    16:00 +1°C° 0.2 mm 5 m/s 713 mmHg 92%
    17:00 +1°C° 0.2 mm 5 m/s 712 mmHg 93%
    18:00 -1°C° 0.2 mm 6 m/s 711 mmHg 93%
    19:00 -1°C° 1.3 mm 6 m/s 711 mmHg 94%
    20:00 +1°C° 1.3 mm 6 m/s 711 mmHg 95%
    21:00 +1°C° 1.3 mm 6 m/s 711 mmHg 96%
    22:00 0°C° 1.3 mm 5 m/s 711 mmHg 96%
    23:00 0°C° 1.3 mm 4 m/s 711 mmHg 96%

    Poimâine, 14 Noiembrie, Joi

    Timp Temperatura Precipitaţii Vânt Presiune Umiditate
    00:00 +1°C° 1.3 mm 3 m/s 711 mmHg 97%
    01:00 +1°C° 2.1 mm 3 m/s 712 mmHg 97%
    02:00 0°C° 2.1 mm 4 m/s 712 mmHg 97%
    03:00 -1°C° 2.1 mm 5 m/s 712 mmHg 98%
    04:00 -1°C° 2.7 mm 5 m/s 713 mmHg 98%
    05:00 -2°C° 2.7 mm 6 m/s 714 mmHg 98%
    06:00 -2°C° 2.7 mm 7 m/s 714 mmHg 98%
    07:00 -2°C° 2.2 mm 7 m/s 715 mmHg 98%
    08:00 -1°C° 2.2 mm 7 m/s 715 mmHg 98%
    09:00 -1°C° 2.2 mm 7 m/s 716 mmHg 98%
    10:00 -1°C° 2.3 mm 7 m/s 716 mmHg 98%
    11:00 -1°C° 2.3 mm 7 m/s 716 mmHg 98%
    12:00 -1°C° 2.3 mm 7 m/s 717 mmHg 98%
    13:00 0°C° 1.9 mm 5 m/s 717 mmHg 98%
    14:00 0°C° 1.9 mm 4 m/s 717 mmHg 98%
    15:00 +1°C° 1.9 mm 3 m/s 717 mmHg 98%
    16:00 +2°C° 0.6 mm 2 m/s 718 mmHg 98%
    17:00 +1°C° 0.6 mm 2 m/s 719 mmHg 98%
    18:00 +1°C° 0.6 mm 2 m/s 720 mmHg 98%
    19:00 +1°C° 0 mm 2 m/s 721 mmHg 98%
    20:00 0°C° 0 mm 3 m/s 721 mmHg 98%
    21:00 0°C° 0 mm 3 m/s 722 mmHg 98%
    22:00 0°C° 0 mm 3 m/s 723 mmHg 98%
    23:00 -1°C° 0 mm 4 m/s 723 mmHg 98%

    15 Noiembrie, Vineri

    Timp Temperatura Precipitaţii Vânt Presiune Umiditate
    00:00 -1°C° 0 mm 5 m/s 724 mmHg 97%
    01:00 -1°C° 0 mm 4 m/s 724 mmHg 98%
    02:00 0°C° 0 mm 3 m/s 725 mmHg 98%
    03:00 0°C° 0 mm 3 m/s 725 mmHg 98%
    04:00 0°C° 0 mm 3 m/s 726 mmHg 97%
    05:00 0°C° 0 mm 3 m/s 726 mmHg 97%
    06:00 0°C° 0 mm 3 m/s 726 mmHg 96%
    07:00 0°C° 0 mm 3 m/s 727 mmHg 96%
    08:00 +1°C° 0 mm 3 m/s 727 mmHg 96%
    09:00 +1°C° 0 mm 3 m/s 727 mmHg 96%
    10:00 +1°C° 0 mm 4 m/s 727 mmHg 95%
    11:00 +1°C° 0 mm 4 m/s 727 mmHg 95%
    12:00 +2°C° 0 mm 5 m/s 728 mmHg 94%
    13:00 +2°C° 0.1 mm 5 m/s 727 mmHg 93%
    14:00 +2°C° 0.1 mm 5 m/s 727 mmHg 92%
    15:00 +2°C° 0.1 mm 5 m/s 727 mmHg 91%
    16:00 +2°C° 0 mm 5 m/s 726 mmHg 91%
    17:00 +1°C° 0 mm 5 m/s 726 mmHg 91%
    18:00 +1°C° 0 mm 5 m/s 726 mmHg 91%
    19:00 +1°C° 0 mm 5 m/s 726 mmHg 90%
    20:00 +1°C° 0 mm 6 m/s 726 mmHg 90%
    21:00 +1°C° 0 mm 6 m/s 726 mmHg 89%
    22:00 +1°C° 0.2 mm 6 m/s 725 mmHg 90%
    23:00 0°C° 0.2 mm 7 m/s 725 mmHg 91%

    16 Noiembrie, Sâmbătă

    Timp Temperatura Precipitaţii Vânt Presiune Umiditate
    00:00 0°C° 0.2 mm 7 m/s 725 mmHg 92%
    01:00 0°C° 0.9 mm 7 m/s 725 mmHg 93%
    02:00 +1°C° 0.9 mm 6 m/s 725 mmHg 94%
    03:00 +2°C° 0.9 mm 5 m/s 724 mmHg 95%
    04:00 +2°C° 0.5 mm 5 m/s 725 mmHg 95%
    05:00 +3°C° 0.5 mm 4 m/s 725 mmHg 95%
    06:00 +3°C° 0.5 mm 3 m/s 725 mmHg 96%
    07:00 +3°C° 0.1 mm 3 m/s 725 mmHg 96%
    08:00 +4°C° 0.1 mm 2 m/s 725 mmHg 96%
    09:00 +4°C° 0.1 mm 2 m/s 725 mmHg 96%
    10:00 +4°C° 0.2 mm 2 m/s 725 mmHg 96%
    11:00 +5°C° 0.2 mm 2 m/s 725 mmHg 95%
    12:00 +5°C° 0.2 mm 2 m/s 725 mmHg 94%
    13:00 +5°C° 0.1 mm 2 m/s 725 mmHg 94%
    14:00 +5°C° 0.1 mm 2 m/s 725 mmHg 94%
    15:00 +6°C° 0.1 mm 1 m/s 725 mmHg 94%
    16:00 +6°C° 0.1 mm 1 m/s 725 mmHg 95%
    17:00 +6°C° 0.1 mm 1 m/s 725 mmHg 96%
    18:00 +6°C° 0.1 mm 1 m/s 725 mmHg 96%
    19:00 +5°C° 0 mm 1 m/s 725 mmHg 96%
    20:00 +5°C° 0 mm 1 m/s 726 mmHg 96%
    21:00 +5°C° 0 mm 1 m/s 726 mmHg 96%
    22:00 +5°C° 0.2 mm 1 m/s 726 mmHg 96%
    23:00 +5°C° 0.2 mm 1 m/s 726 mmHg 97%

    17 Noiembrie, Duminică

    Timp Temperatura Precipitaţii Vânt Presiune Umiditate
    00:00 +5°C° 0.2 mm 1 m/s 726 mmHg 97%
    01:00 +5°C° 0.4 mm 2 m/s 727 mmHg 97%
    02:00 +5°C° 0.4 mm 2 m/s 727 mmHg 97%
    03:00 +4°C° 0.4 mm 3 m/s 727 mmHg 97%
    04:00 +3°C° 0.2 mm 3 m/s 727 mmHg 97%
    05:00 +4°C° 0.2 mm 2 m/s 727 mmHg 96%
    06:00 +4°C° 0.2 mm 2 m/s 728 mmHg 95%
    07:00 +3°C° 0 mm 3 m/s 728 mmHg 95%
    08:00 +3°C° 0 mm 3 m/s 729 mmHg 94%
    09:00 +3°C° 0 mm 3 m/s 729 mmHg 94%
    10:00 +3°C° 0 mm 3 m/s 729 mmHg 93%
    11:00 +3°C° 0 mm 3 m/s 729 mmHg 92%
    12:00 +4°C° 0 mm 3 m/s 730 mmHg 91%
    13:00 +4°C° 0 mm 3 m/s 730 mmHg 91%
    14:00 +4°C° 0 mm 3 m/s 730 mmHg 91%
    15:00 +4°C° 0 mm 3 m/s 730 mmHg 91%
    16:00 +3°C° 0 mm 3 m/s 730 mmHg 91%
    17:00 +3°C° 0 mm 3 m/s 730 mmHg 91%
    18:00 +3°C° 0 mm 3 m/s 730 mmHg 91%
    19:00 +2°C° 0 mm 3 m/s 730 mmHg 92%
    20:00 +2°C° 0 mm 3 m/s 730 mmHg 92%
    21:00 +2°C° 0 mm 3 m/s 730 mmHg 92%
    22:00 +1°C° 0 mm 3 m/s 730 mmHg 92%
    23:00 +1°C° 0 mm 2 m/s 729 mmHg 93%
    Arată mai mult